Location: Emory University Observatory
(33.7903°N, 84.3267°W)
Time: 15:40:14
(UTC-04:00)

Vanguard 2 - Visible Passes

Search period start: 19 July 2018 00:00
Search period end: 29 July 2018 00:00
Orbit: 553 x 2939 km, 32.9° (Epoch: 19 July)

Date Brightness Start Highest point End Pass type
(mag) Time Alt. Az. Time Alt. Az. Time Alt. Az.
19 Jul 9.8 01:17:24 10° WNW 01:34:37 61° SSW 01:35:40 60° SSW visible
19 Jul 11.1 03:33:04 10° W 03:36:59 17° W 03:36:59 17° W visible
19 Jul 10.4 21:10:35 10° W 21:26:52 86° S 21:44:33 10° E visible
19 Jul 10.2 23:22:32 10° W 23:40:34 81° SSW 23:50:15 32° ESE visible
20 Jul 10.1 01:35:59 10° WNW 01:51:35 51° SW 01:51:35 51° SW visible
20 Jul 10.4 21:28:52 10° W 21:45:21 87° S 22:02:57 10° E visible
20 Jul 10.1 23:40:57 10° W 23:58:54 75° SSW 00:06:13 42° SE visible
21 Jul 10.4 01:54:43 10° W 02:07:34 39° WSW 02:07:34 39° WSW visible
21 Jul 10.4 21:47:12 10° W 22:03:52 87° S 22:20:55 11° E visible
21 Jul 10.1 23:59:22 10° W 00:17:08 68° SSW 00:22:16 51° SSE visible
22 Jul 10.8 02:13:42 10° W 02:23:36 29° WSW 02:23:36 29° WSW visible
22 Jul 10.3 22:05:32 10° W 22:22:21 84° S 22:37:00 18° ESE visible
23 Jul 10.1 00:17:50 10° WNW 00:35:13 59° SSW 00:38:21 53° S visible
23 Jul 11.2 02:33:11 10° W 02:39:41 20° WSW 02:39:41 20° WSW visible
23 Jul 10.3 22:23:52 10° W 22:40:47 79° SSW 22:53:08 25° ESE visible
24 Jul 10.3 00:36:24 10° W 00:53:09 50° SSW 00:54:29 49° SSW visible
24 Jul 11.5 02:53:32 10° W 02:55:50 13° WSW 02:55:50 13° WSW visible
24 Jul 10.3 22:42:12 10° W 22:59:07 73° SSW 23:09:19 33° SE visible
25 Jul 10.5 00:55:08 10° W 01:10:40 41° SW 01:10:40 41° SW visible
25 Jul 10.4 20:49:28 10° W 21:04:11 86° S 21:22:24 10° E visible
25 Jul 10.3 23:00:33 10° W 23:17:20 65° SSW 23:25:33 38° SE visible
26 Jul 10.8 01:14:11 10° W 01:26:55 32° SW 01:26:55 32° SW visible
26 Jul 10.3 21:07:43 10° W 21:22:38 82° SSW 21:40:29 11° ESE visible
26 Jul 10.4 23:18:59 10° W 23:35:27 56° SSW 23:41:50 42° SSE visible
27 Jul 11.2 01:33:46 10° W 01:43:12 23° WSW 01:43:12 23° WSW visible
27 Jul 10.3 21:25:58 10° W 21:41:01 77° SSW 21:56:49 16° ESE visible
27 Jul 10.5 23:37:31 10° W 23:53:27 47° SSW 23:58:11 41° S visible
28 Jul 11.5 01:54:22 10° W 01:59:33 15° WSW 01:59:33 15° WSW visible
28 Jul 10.4 21:44:13 10° W 21:59:20 69° SSW 22:13:12 21° SE visible
